Wolke Sonne

Wetter Roßtal

Gehe zu: Ammerndorf | Roßtal 2

Tageswerte vom Mittwoch, 21.08.2019

Optionen

Tag:
Erweitert:

Alle Werte vom Mittwoch, 21.08.2019

Einen Moment bitte, die Daten werden aufbereitet...

UhrzeitTemperaturFeuchteLuftdruckNiederschlagEvapotranspirationNiederschlag?WindWindböenRegenrateWindrichtungHelligkeitSolarstrahlungUV-IndexSonne?Feinstaub 10µmUhrzeit
Diagramm IconDiagramm IconDiagramm IconDiagramm IconDiagramm IconDiagramm IconDiagramm IconDiagramm IconDiagramm IconDiagramm IconDiagramm IconDiagramm IconDiagramm IconDiagramm IconDiagramm Icon
00:0012,8 °C 94 % 1027,5 hPa 0,0 mm 0,0 mm nein 0,0 km/h 0,0 km/h 0,0 mm/h N 0,000 klux 0,0 W/qm 0,0 nein - 00:00
00:0512,8 °C 94 % 1027,4 hPa 0,0 mm 0,0 mm nein 0,0 km/h 0,0 km/h 0,0 mm/h N 0,000 klux 0,0 W/qm 0,0 nein - 00:05
00:1012,8 °C 94 % 1027,5 hPa 0,0 mm 0,0 mm nein 0,0 km/h 0,0 km/h 0,0 mm/h N 0,000 klux 0,0 W/qm 0,0 nein - 00:10
00:1512,8 °C 94 % 1027,6 hPa 0,0 mm 0,0 mm nein 0,0 km/h 0,0 km/h 0,0 mm/h N 0,000 klux 0,0 W/qm 0,0 nein - 00:15
00:2012,8 °C 94 % 1027,7 hPa 0,0 mm 0,0 mm nein 0,0 km/h 0,0 km/h 0,0 mm/h N 0,000 klux 0,0 W/qm 0,0 nein - 00:20
00:2512,8 °C 94 % 1027,7 hPa 0,0 mm 0,0 mm nein 0,0 km/h 0,0 km/h 0,0 mm/h N 0,000 klux 0,0 W/qm 0,0 nein - 00:25
00:3012,8 °C 94 % 1028,0 hPa 0,0 mm 0,0 mm nein 0,0 km/h 0,0 km/h 0,0 mm/h N 0,000 klux 0,0 W/qm 0,0 nein - 00:30
00:3512,8 °C 94 % 1028,2 hPa 0,0 mm 0,0 mm nein 0,0 km/h 0,0 km/h 0,0 mm/h N 0,000 klux 0,0 W/qm 0,0 nein - 00:35
00:4012,8 °C 94 % 1028,3 hPa 0,0 mm 0,0 mm nein 1,6 km/h 6,4 km/h 0,0 mm/h SSW 0,000 klux 0,0 W/qm 0,0 nein - 00:40
00:4512,8 °C 94 % 1028,4 hPa 0,0 mm 0,0 mm nein 0,0 km/h 6,4 km/h 0,0 mm/h SSW 0,000 klux 0,0 W/qm 0,0 nein - 00:45
00:5012,8 °C 94 % 1028,4 hPa 0,0 mm 0,0 mm nein 0,0 km/h 4,8 km/h 0,0 mm/h SW 0,000 klux 0,0 W/qm 0,0 nein - 00:50
00:5512,8 °C 94 % 1028,4 hPa 0,0 mm 0,0 mm nein 0,0 km/h 0,0 km/h 0,0 mm/h N 0,000 klux 0,0 W/qm 0,0 nein - 00:55
01:0012,8 °C 94 % 1028,3 hPa 0,0 mm 0,0 mm nein 0,0 km/h 0,0 km/h 0,0 mm/h N 0,000 klux 0,0 W/qm 0,0 nein - 01:00
01:0512,8 °C 94 % 1028,3 hPa 0,0 mm 0,0 mm nein 0,0 km/h 1,6 km/h 0,0 mm/h S 0,000 klux 0,0 W/qm 0,0 nein - 01:05
01:1012,8 °C 94 % 1028,3 hPa 0,0 mm 0,0 mm nein 0,0 km/h 0,0 km/h 0,0 mm/h N 0,000 klux 0,0 W/qm 0,0 nein - 01:10
01:1512,8 °C 94 % 1028,3 hPa 0,0 mm 0,0 mm nein 0,0 km/h 0,0 km/h 0,0 mm/h N 0,000 klux 0,0 W/qm 0,0 nein - 01:15
01:2012,8 °C 94 % 1028,2 hPa 0,0 mm 0,0 mm nein 0,0 km/h 0,0 km/h 0,0 mm/h N 0,000 klux 0,0 W/qm 0,0 nein - 01:20
01:2512,8 °C 94 % 1028,1 hPa 0,0 mm 0,0 mm nein 0,0 km/h 0,0 km/h 0,0 mm/h N 0,000 klux 0,0 W/qm 0,0 nein - 01:25
01:3012,8 °C 94 % 1028,2 hPa 0,0 mm 0,0 mm nein 0,0 km/h 0,0 km/h 0,0 mm/h N 0,000 klux 0,0 W/qm 0,0 nein - 01:30
01:3512,8 °C 94 % 1028,1 hPa 0,0 mm 0,0 mm nein 0,0 km/h 0,0 km/h 0,0 mm/h N 0,000 klux 0,0 W/qm 0,0 nein - 01:35
01:4012,8 °C 94 % 1028,3 hPa 0,0 mm 0,0 mm nein 0,0 km/h 0,0 km/h 0,0 mm/h N 0,000 klux 0,0 W/qm 0,0 nein - 01:40
01:4512,8 °C 94 % 1028,3 hPa 0,0 mm 0,0 mm nein 0,0 km/h 0,0 km/h 0,0 mm/h N 0,000 klux 0,0 W/qm 0,0 nein - 01:45
01:5012,8 °C 94 % 1028,3 hPa 0,0 mm 0,0 mm nein 0,0 km/h 0,0 km/h 0,0 mm/h N 0,000 klux 0,0 W/qm 0,0 nein - 01:50
01:5512,8 °C 94 % 1028,3 hPa 0,0 mm 0,0 mm nein 0,0 km/h 0,0 km/h 0,0 mm/h N 0,000 klux 0,0 W/qm 0,0 nein - 01:55
UhrzeitTemperaturFeuchteLuftdruckNiederschlagEvapotranspirationNiederschlag?WindWindböenRegenrateWindrichtungHelligkeitSolarstrahlungUV-IndexSonne?Feinstaub 10µmUhrzeit
02:0012,8 °C 94 % 1028,4 hPa 0,0 mm 0,0 mm nein 0,0 km/h 0,0 km/h 0,0 mm/h N 0,000 klux 0,0 W/qm 0,0 nein - 02:00
02:0512,2 °C 94 % 1028,5 hPa 0,0 mm 0,0 mm nein 0,0 km/h 0,0 km/h 0,0 mm/h N 0,000 klux 0,0 W/qm 0,0 nein - 02:05
02:1012,2 °C 94 % 1028,5 hPa 0,0 mm 0,0 mm nein 0,0 km/h 0,0 km/h 0,0 mm/h N 0,000 klux 0,0 W/qm 0,0 nein - 02:10
02:1512,2 °C 94 % 1028,5 hPa 0,0 mm 0,0 mm nein 0,0 km/h 0,0 km/h 0,0 mm/h N 0,000 klux 0,0 W/qm 0,0 nein - 02:15
02:2012,2 °C 94 % 1028,5 hPa 0,0 mm 0,0 mm nein 0,0 km/h 0,0 km/h 0,0 mm/h N 0,000 klux 0,0 W/qm 0,0 nein - 02:20
02:2512,2 °C 94 % 1028,4 hPa 0,0 mm 0,0 mm nein 0,0 km/h 0,0 km/h 0,0 mm/h N 0,000 klux 0,0 W/qm 0,0 nein - 02:25
02:3012,2 °C 94 % 1028,3 hPa 0,0 mm 0,0 mm nein 0,0 km/h 0,0 km/h 0,0 mm/h N 0,000 klux 0,0 W/qm 0,0 nein - 02:30
02:3512,2 °C 94 % 1028,4 hPa 0,0 mm 0,0 mm nein 0,0 km/h 0,0 km/h 0,0 mm/h N 0,000 klux 0,0 W/qm 0,0 nein - 02:35
02:4012,2 °C 94 % 1028,4 hPa 0,0 mm 0,0 mm nein 0,0 km/h 0,0 km/h 0,0 mm/h N 0,000 klux 0,0 W/qm 0,0 nein - 02:40
02:4512,2 °C 94 % 1028,4 hPa 0,0 mm 0,0 mm nein 0,0 km/h 0,0 km/h 0,0 mm/h N 0,000 klux 0,0 W/qm 0,0 nein - 02:45
02:5012,2 °C 94 % 1028,4 hPa 0,0 mm 0,0 mm nein 0,0 km/h 6,4 km/h 0,0 mm/h S 0,000 klux 0,0 W/qm 0,0 nein - 02:50
02:5512,2 °C 94 % 1028,4 hPa 0,0 mm 0,0 mm nein 0,0 km/h 4,8 km/h 0,0 mm/h S 0,000 klux 0,0 W/qm 0,0 nein - 02:55
03:0011,7 °C 94 % 1028,8 hPa 0,0 mm 0,0 mm nein 1,6 km/h 4,8 km/h 0,0 mm/h S 0,000 klux 0,0 W/qm 0,0 nein - 03:00
03:0511,7 °C 94 % 1028,8 hPa 0,0 mm 0,0 mm nein 0,0 km/h 4,8 km/h 0,0 mm/h SSW 0,000 klux 0,0 W/qm 0,0 nein - 03:05
03:1011,7 °C 94 % 1028,8 hPa 0,0 mm 0,0 mm nein 0,0 km/h 6,4 km/h 0,0 mm/h S 0,000 klux 0,0 W/qm 0,0 nein - 03:10
03:1511,7 °C 94 % 1028,8 hPa 0,0 mm 0,0 mm nein 0,0 km/h 6,4 km/h 0,0 mm/h SW 0,000 klux 0,0 W/qm 0,0 nein - 03:15
03:2011,7 °C 94 % 1028,8 hPa 0,0 mm 0,0 mm nein 1,6 km/h 4,8 km/h 0,0 mm/h SSW 0,000 klux 0,0 W/qm 0,0 nein - 03:20
03:2511,7 °C 94 % 1028,8 hPa 0,0 mm 0,0 mm nein 0,0 km/h 0,0 km/h 0,0 mm/h N 0,000 klux 0,0 W/qm 0,0 nein - 03:25
03:3011,7 °C 94 % 1028,8 hPa 0,0 mm 0,0 mm nein 0,0 km/h 0,0 km/h 0,0 mm/h N 0,000 klux 0,0 W/qm 0,0 nein - 03:30
03:3511,7 °C 94 % 1028,8 hPa 0,0 mm 0,0 mm nein 0,0 km/h 0,0 km/h 0,0 mm/h N 0,000 klux 0,0 W/qm 0,0 nein - 03:35
03:4011,7 °C 94 % 1028,8 hPa 0,0 mm 0,0 mm nein 0,0 km/h 0,0 km/h 0,0 mm/h N 0,000 klux 0,0 W/qm 0,0 nein - 03:40
03:4511,7 °C 94 % 1028,7 hPa 0,0 mm 0,0 mm nein 0,0 km/h 0,0 km/h 0,0 mm/h N 0,000 klux 0,0 W/qm 0,0 nein - 03:45
03:5011,7 °C 94 % 1028,7 hPa 0,0 mm 0,0 mm nein 0,0 km/h 0,0 km/h 0,0 mm/h N 0,000 klux 0,0 W/qm 0,0 nein - 03:50
03:5511,1 °C 94 % 1028,8 hPa 0,0 mm 0,0 mm nein 0,0 km/h 0,0 km/h 0,0 mm/h N 0,000 klux 0,0 W/qm 0,0 nein - 03:55
UhrzeitTemperaturFeuchteLuftdruckNiederschlagEvapotranspirationNiederschlag?WindWindböenRegenrateWindrichtungHelligkeitSolarstrahlungUV-IndexSonne?Feinstaub 10µmUhrzeit
04:0011,1 °C 94 % 1028,9 hPa 0,0 mm 0,0 mm nein 0,0 km/h 0,0 km/h 0,0 mm/h N 0,000 klux 0,0 W/qm 0,0 nein - 04:00
04:0511,1 °C 94 % 1028,9 hPa 0,0 mm 0,0 mm nein 0,0 km/h 0,0 km/h 0,0 mm/h N 0,000 klux 0,0 W/qm 0,0 nein - 04:05
04:1011,1 °C 94 % 1029,0 hPa 0,0 mm 0,0 mm nein 0,0 km/h 0,0 km/h 0,0 mm/h N 0,000 klux 0,0 W/qm 0,0 nein - 04:10
04:1511,1 °C 94 % 1029,1 hPa 0,0 mm 0,0 mm nein 0,0 km/h 0,0 km/h 0,0 mm/h N 0,000 klux 0,0 W/qm 0,0 nein - 04:15
04:2011,1 °C 94 % 1029,0 hPa 0,0 mm 0,0 mm nein 0,0 km/h 0,0 km/h 0,0 mm/h N 0,000 klux 0,0 W/qm 0,0 nein - 04:20
04:2511,1 °C 94 % 1029,0 hPa 0,0 mm 0,0 mm nein 0,0 km/h 0,0 km/h 0,0 mm/h N 0,000 klux 0,0 W/qm 0,0 nein - 04:25
04:3011,1 °C 94 % 1029,0 hPa 0,0 mm 0,0 mm nein 0,0 km/h 0,0 km/h 0,0 mm/h N 0,000 klux 0,0 W/qm 0,0 nein - 04:30
04:3511,1 °C 94 % 1029,1 hPa 0,0 mm 0,0 mm nein 0,0 km/h 0,0 km/h 0,0 mm/h N 0,000 klux 0,0 W/qm 0,0 nein - 04:35
04:4011,1 °C 94 % 1029,0 hPa 0,2 mm 0,0 mm ja 0,0 km/h 0,0 km/h 0,0 mm/h N 0,000 klux 0,0 W/qm 0,0 nein - 04:40
04:4511,1 °C 94 % 1029,0 hPa 0,0 mm 0,0 mm nein 0,0 km/h 0,0 km/h 0,0 mm/h N 0,000 klux 0,0 W/qm 0,0 nein - 04:45
04:5010,6 °C 94 % 1029,0 hPa 0,0 mm 0,0 mm nein 0,0 km/h 0,0 km/h 0,0 mm/h N 0,000 klux 0,0 W/qm 0,0 nein - 04:50
04:5510,6 °C 94 % 1029,0 hPa 0,0 mm 0,0 mm nein 0,0 km/h 0,0 km/h 0,0 mm/h N 0,000 klux 0,0 W/qm 0,0 nein - 04:55
05:0010,6 °C 94 % 1029,0 hPa 0,0 mm 0,0 mm nein 0,0 km/h 0,0 km/h 0,0 mm/h N 0,000 klux 0,0 W/qm 0,0 nein - 05:00
05:0510,6 °C 94 % 1029,0 hPa 0,0 mm 0,0 mm nein 0,0 km/h 0,0 km/h 0,0 mm/h N 0,000 klux 0,0 W/qm 0,0 nein - 05:05
05:1010,6 °C 94 % 1029,0 hPa 0,0 mm 0,0 mm nein 0,0 km/h 0,0 km/h 0,0 mm/h N 0,000 klux 0,0 W/qm 0,0 nein - 05:10
05:1510,6 °C 94 % 1029,1 hPa 0,0 mm 0,0 mm nein 0,0 km/h 0,0 km/h 0,0 mm/h N 0,000 klux 0,0 W/qm 0,0 nein - 05:15
05:2010,6 °C 94 % 1029,1 hPa 0,0 mm 0,0 mm nein 0,0 km/h 0,0 km/h 0,0 mm/h N 0,000 klux 0,0 W/qm 0,0 nein - 05:20
05:2510,6 °C 94 % 1029,1 hPa 0,0 mm 0,0 mm nein 0,0 km/h 0,0 km/h 0,0 mm/h N 0,000 klux 0,0 W/qm 0,0 nein - 05:25
05:3010,6 °C 94 % 1029,1 hPa 0,0 mm 0,0 mm nein 0,0 km/h 0,0 km/h 0,0 mm/h N 0,000 klux 0,0 W/qm 0,0 nein - 05:30
05:3510,6 °C 94 % 1029,2 hPa 0,0 mm 0,0 mm nein 0,0 km/h 0,0 km/h 0,0 mm/h N 0,000 klux 0,0 W/qm 0,0 nein - 05:35
05:4010,6 °C 94 % 1029,3 hPa 0,0 mm 0,0 mm nein 0,0 km/h 0,0 km/h 0,0 mm/h N 0,000 klux 0,0 W/qm 0,0 nein - 05:40
05:4510,6 °C 94 % 1029,4 hPa 0,0 mm 0,0 mm nein 0,0 km/h 0,0 km/h 0,0 mm/h N 0,000 klux 0,0 W/qm 0,0 nein - 05:45
05:5010,6 °C 94 % 1029,4 hPa 0,0 mm 0,0 mm nein 0,0 km/h 0,0 km/h 0,0 mm/h N 0,000 klux 0,0 W/qm 0,0 nein - 05:50
05:5510,0 °C 94 % 1029,6 hPa 0,0 mm 0,0 mm nein 0,0 km/h 0,0 km/h 0,0 mm/h N 0,000 klux 0,0 W/qm 0,0 nein - 05:55
UhrzeitTemperaturFeuchteLuftdruckNiederschlagEvapotranspirationNiederschlag?WindWindböenRegenrateWindrichtungHelligkeitSolarstrahlungUV-IndexSonne?Feinstaub 10µmUhrzeit
06:0010,0 °C 94 % 1029,6 hPa 0,0 mm 0,0 mm nein 0,0 km/h 0,0 km/h 0,0 mm/h N 0,000 klux 0,0 W/qm 0,0 nein - 06:00
06:0510,0 °C 94 % 1029,5 hPa 0,0 mm 0,0 mm nein 0,0 km/h 0,0 km/h 0,0 mm/h N 0,000 klux 0,0 W/qm 0,0 nein - 06:05
06:1010,0 °C 94 % 1029,6 hPa 0,0 mm 0,0 mm nein 0,0 km/h 0,0 km/h 0,0 mm/h N 0,000 klux 0,0 W/qm 0,0 nein - 06:10
06:1510,0 °C 94 % 1029,7 hPa 0,0 mm 0,0 mm nein 0,0 km/h 0,0 km/h 0,0 mm/h N 0,000 klux 0,0 W/qm 0,0 nein - 06:15
06:2010,0 °C 94 % 1029,6 hPa 0,0 mm 0,0 mm nein 0,0 km/h 0,0 km/h 0,0 mm/h N 0,503 klux 3,0 W/qm 0,0 nein - 06:20
06:2510,0 °C 94 % 1029,6 hPa 0,0 mm 0,0 mm nein 0,0 km/h 0,0 km/h 0,0 mm/h N 1,002 klux 6,0 W/qm 0,0 nein - 06:25
06:3010,0 °C 94 % 1029,6 hPa 0,0 mm 0,0 mm nein 0,0 km/h 0,0 km/h 0,0 mm/h N 1,663 klux 10,0 W/qm 0,0 nein - 06:30
06:3510,0 °C 94 % 1029,6 hPa 0,0 mm 0,0 mm nein 0,0 km/h 0,0 km/h 0,0 mm/h N 1,988 klux 12,0 W/qm 0,0 nein - 06:35
06:4010,0 °C 94 % 1029,7 hPa 0,0 mm 0,0 mm nein 0,0 km/h 0,0 km/h 0,0 mm/h N 2,474 klux 15,0 W/qm 0,0 nein - 06:40
06:4510,0 °C 94 % 1029,9 hPa 0,0 mm 0,0 mm nein 0,0 km/h 0,0 km/h 0,0 mm/h N 3,285 klux 20,0 W/qm 0,0 nein - 06:45
06:5010,0 °C 94 % 1029,9 hPa 0,0 mm 0,0 mm nein 0,0 km/h 0,0 km/h 0,0 mm/h N 5,725 klux 35,0 W/qm 0,0 ja - 06:50
06:5510,0 °C 94 % 1029,9 hPa 0,0 mm 0,0 mm nein 0,0 km/h 0,0 km/h 0,0 mm/h N 7,329 klux 45,0 W/qm 0,0 ja - 06:55
07:0010,0 °C 94 % 1029,9 hPa 0,0 mm 0,0 mm nein 0,0 km/h 0,0 km/h 0,0 mm/h N 9,569 klux 59,0 W/qm 0,0 ja - 07:00
07:0510,0 °C 95 % 1030,0 hPa 0,0 mm 0,0 mm nein 0,0 km/h 0,0 km/h 0,0 mm/h N 10,981 klux 68,0 W/qm 0,0 ja - 07:05
07:1010,0 °C 95 % 1030,0 hPa 0,0 mm 0,0 mm nein 0,0 km/h 0,0 km/h 0,0 mm/h N 10,933 klux 68,0 W/qm 0,0 ja - 07:10
07:1510,0 °C 95 % 1030,0 hPa 0,0 mm 0,0 mm nein 0,0 km/h 0,0 km/h 0,0 mm/h N 13,126 klux 82,0 W/qm 0,0 ja - 07:15
07:2010,0 °C 95 % 1030,1 hPa 0,0 mm 0,0 mm nein 0,0 km/h 0,0 km/h 0,0 mm/h N 15,619 klux 98,0 W/qm 0,0 ja - 07:20
07:2510,0 °C 95 % 1030,0 hPa 0,0 mm 0,0 mm nein 0,0 km/h 0,0 km/h 0,0 mm/h N 17,612 klux 111,0 W/qm 0,0 ja - 07:25
07:3010,6 °C 96 % 1030,0 hPa 0,0 mm 0,0 mm nein 0,0 km/h 0,0 km/h 0,0 mm/h N 19,745 klux 125,0 W/qm 0,0 ja - 07:30
07:3511,1 °C 96 % 1029,9 hPa 0,0 mm 0,0 mm nein 0,0 km/h 0,0 km/h 0,0 mm/h N 22,330 klux 142,0 W/qm 0,0 ja - 07:35
07:4011,1 °C 96 % 1029,9 hPa 0,0 mm 0,0 mm nein 0,0 km/h 0,0 km/h 0,0 mm/h N 24,264 klux 155,0 W/qm 0,0 ja - 07:40
07:4511,7 °C 96 % 1029,8 hPa 0,0 mm 0,0 mm nein 0,0 km/h 0,0 km/h 0,0 mm/h N 25,401 klux 163,0 W/qm 0,0 ja - 07:45
07:5011,7 °C 97 % 1029,9 hPa 0,0 mm 0,0 mm nein 0,0 km/h 0,0 km/h 0,0 mm/h N 27,302 klux 176,0 W/qm 0,0 ja - 07:50
07:5512,2 °C 97 % 1029,8 hPa 0,0 mm 0,0 mm nein 0,0 km/h 0,0 km/h 0,0 mm/h N 30,573 klux 198,0 W/qm 0,0 ja - 07:55
UhrzeitTemperaturFeuchteLuftdruckNiederschlagEvapotranspirationNiederschlag?WindWindböenRegenrateWindrichtungHelligkeitSolarstrahlungUV-IndexSonne?Feinstaub 10µmUhrzeit
08:0012,2 °C 97 % 1029,9 hPa 0,0 mm 0,1 mm nein 0,0 km/h 0,0 km/h 0,0 mm/h N 32,584 klux 212,0 W/qm 0,0 ja - 08:00
08:0512,2 °C 96 % 1029,9 hPa 0,0 mm 0,0 mm nein 0,0 km/h 0,0 km/h 0,0 mm/h N 34,575 klux 226,0 W/qm 0,0 ja - 08:05
08:1012,2 °C 96 % 1029,9 hPa 0,0 mm 0,0 mm nein 0,0 km/h 0,0 km/h 0,0 mm/h N 36,090 klux 237,0 W/qm 0,0 ja - 08:10
08:1512,8 °C 97 % 1029,8 hPa 0,0 mm 0,0 mm nein 0,0 km/h 0,0 km/h 0,0 mm/h N 37,740 klux 249,0 W/qm 0,5 ja - 08:15
08:2012,8 °C 97 % 1029,8 hPa 0,0 mm 0,0 mm nein 0,0 km/h 0,0 km/h 0,0 mm/h N 39,524 klux 262,0 W/qm 0,5 ja - 08:20
08:2513,3 °C 97 % 1029,7 hPa 0,0 mm 0,0 mm nein 0,0 km/h 0,0 km/h 0,0 mm/h N 41,140 klux 274,0 W/qm 0,6 ja - 08:25
08:3013,3 °C 97 % 1029,7 hPa 0,0 mm 0,0 mm nein 0,0 km/h 0,0 km/h 0,0 mm/h N 43,486 klux 291,0 W/qm 0,6 ja - 08:30
08:3513,3 °C 97 % 1029,7 hPa 0,0 mm 0,0 mm nein 0,0 km/h 0,0 km/h 0,0 mm/h N 45,511 klux 306,0 W/qm 0,7 ja - 08:35
08:4013,9 °C 97 % 1029,6 hPa 0,0 mm 0,0 mm nein 0,0 km/h 0,0 km/h 0,0 mm/h N 47,516 klux 321,0 W/qm 0,7 ja - 08:40
08:4513,9 °C 96 % 1029,6 hPa 0,0 mm 0,0 mm nein 0,0 km/h 0,0 km/h 0,0 mm/h N 49,352 klux 335,0 W/qm 0,8 ja - 08:45
08:5013,9 °C 96 % 1029,5 hPa 0,0 mm 0,0 mm nein 0,0 km/h 0,0 km/h 0,0 mm/h N 51,462 klux 351,0 W/qm 0,9 ja - 08:50
08:5513,9 °C 96 % 1029,6 hPa 0,0 mm 0,0 mm nein 0,0 km/h 0,0 km/h 0,0 mm/h N 53,989 klux 370,0 W/qm 1,0 ja - 08:55
Gesamt: 11,7 °C 94 % 1029,0 hPa 0,2 mm 0,1 mm ja 0,0 km/h 0,5 km/h 0,0 mm/h 0 7,078 klux 46,5 W/qm 0,1 ja nan µg/m³

Insgesamt 108 Zeilen mal 15 Spalten = 1620 Werte werden angezeigt.

www.wetter-rosstal.de   •   www.wetter-franken.de   •   www.lightningmaps.org   •   Start   •   Kontakt / Datenschutz   •   PC-Kümmerer